{"data":{"norad_id":55962,"intl_designator":"2023-037BA","name":"STARLINK-5906","alt_names":[],"object_type":"PAYLOAD","status":"ACTIVE","operator":null,"country":"US","launch_date":"2023-03-17","launch_site_code":"AFWTR","launch_vehicle":null,"mission":null,"orbit_class":"UNKNOWN","rcs_meters":null,"size_class":null,"mass_kg":null,"dimensions":null,"purposes":["comms"],"wikipedia_slug":null,"has_3d_model":false,"image_url":null,"decayed_at":null,"tle_current":{"epoch":"2026-09-19T18:53:11.642784Z","epoch_age_seconds":167770,"freshness":"FRESH","line1":"1 55962U 23037BA  26262.78694031  .00000431  00000+0  43918-4 0  9994","line2":"2 55962  69.9987 135.2033 0002839 269.2847  90.7987 14.98329446193546","mean_motion":14.98329446,"eccentricity":0.0002839,"inclination_deg":69.9987,"raan_deg":135.2033,"arg_perigee_deg":269.2847,"mean_anomaly_deg":90.7987,"bstar":4.3918e-5,"rev_number":19354,"period_min":96.107034660787,"perigee_km":570.08444389613,"apogee_km":574.03076439236,"semimajor_km":6950.1946041442,"source":"CELESTRAK","updated_at":"2026-09-21T09:00:33.348219Z"}}}